Temp
-12 -12 -13 -13 -13 -13 -13 -13 -13 -12 -12 -12 -13 -13 -13 -13 -12 -12 -13 -12 -12 -12 -12 -12 -12 -12 -12 -12 -12 -11 -10 -11 -11 -12 -12 -11 -12 -12 -13 -12 -13 -12 -12
-13 -13 -13 -13 -13 -13 -14 -14 -14 -13 -12 -13 -13 -13 -13 -13 -12 -12 -12 -13 -12 -12 -13 -13 -12 -12 -12 -11 -12 -11 -11 -11 -11 -12 -12 -12 -12 -12 -13 -13 -12 -12 -12
-14 -14 -14 -14 -14 -14 -14 -15 -15 -14 -13 -13 -12 -13 -14 -14 -13 -13 -12 -13 -13 -12 -13 -13 -13 -12 -12 -12 -12 -11 -11 -11 -12 -12 -12 -12 -12 -12 -13 -13 -13 -12 -12
-15 -14 -14 -14 -15 -15 -15 -16 -15 -14 -14 -14 -13 -13 -13 -14 -14 -14 -13 -13 -13 -13 -13 -13 -12 -12 -12 -12 -12 -11 -11 -11 -11 -12 -12 -12 -12 -13 -13 -12 -13 -13 -12
-15 -15 -15 -15 -15 -15 -15 -15 -15 -15 -15 -15 -15 -14 -14 -14 -14 -14 -14 -14 -14 -14 -13 -13 -13 -13 -12 -11 -11 -11 -11 -11 -11 -11 -12 -12 -12 -13 -13 -13 -14 -14 -13
-16 -16 -16 -16 -16 -15 -15 -15 -15 -15 -15 -15 -15 -15 -15 -14 -14 -14 -14 -15 -14 -14 -13 -13 -13 -12 -12 -12 -11 -11 -11 -11 -11 -11 -11 -12 -12 -13 -13 -13 -13 -13 -13
-16 -16 -16 -16 -16 -16 -15 -15 -15 -15 -15 -15 -15 -15 -14 -14 -14 -14 -14 -14 -14 -13 -13 -13 -13 -13 -12 -12 -11 -11 -11 -12 -11 -11 -11 -12 -12 -13 -13 -13 -13 -13 -13
-17 -17 -17 -16 -16 -16 -16 -16 -16 -15 -15 -15 -15 -15 -15 -15 -14 -14 -14 -13 -13 -14 -13 -12 -12 -11 -12 -12 -12 -12 -12 -12 -12 -12 -11 -12 -12 -12 -13 -13 -13 -13 -13
-17 -17 -17 -16 -16 -16 -16 -16 -16 -16 -16 -16 -15 -15 -15 -15 -15 -15 -14 -14 -14 -14 -15 -14 -14 -13 -12 -11 -11 -12 -12 -13 -12 -12 -12 -12 -12 -13 -13 -13 -14 -12 -13
-17 -17 -17 -16 -16 -16 -16 -16 -16 -16 -16 -15 -15 -15 -15 -15 -15 -15 -15 -14 -14 -14 -14 -15 -15 -14 -14 -13 -13 -14 -14 -14 -13 -13 -13 -13 -13 -13 -13 -13 -13 -14 -12
-17 -17 -17 -17 -17 -17 -16 -16 -16 -16 -15 -15 -15 -15 -15 -15 -15 -15 -15 -15 -15 -15 -15 -15 -15 -15 -14 -14 -14 -14 -14 -14 -14 -14 -13 -13 -13 -13 -13 -13 -13 -14 -13
-18 -18 -17 -17 -17 -17 -17 -17 -16 -16 -16 -16 -16 -16 -16 -16 -16 -15 -15 -15 -15 -14 -15 -15 -15 -15 -15 -15 -14 -14 -14 -14 -14 -14 -14 -14 -13 -13 -13 -14 -14 -13 -13
-18 -18 -18 -18 -18 -18 -18 -18 -18 -17 -17 -17 -17 -17 -17 -16 -16 -16 -16 -16 -16 -16 -15 -16 -16 -16 -17 -17 -16 -15 -15 -14 -14 -14 -14 -14 -14 -14 -14 -14 -14 -13 -13
-19 -19 -19 -19 -19 -19 -19 -19 -18 -18 -18 -18 -17 -17 -17 -17 -16 -16 -16 -16 -16 -16 -15 -16 -16 -16 -16 -16 -16 -16 -16 -16 -15 -15 -15 -14 -14 -14 -14 -14 -14 -15 -14
-20 -20 -20 -20 -20 -19 -19 -19 -19 -18 -18 -18 -18 -18 -17 -17 -17 -17 -16 -16 -16 -16 -16 -16 -16 -16 -16 -16 -16 -16 -16 -16 -16 -16 -16 -16 -15 -14 -14 -15 -14 -13 -14
-20 -20 -20 -20 -20 -20 -20 -19 -19 -18 -18 -17 -17 -17 -17 -17 -17 -17 -17 -17 -16 -16 -16 -16 -16 -17 -17 -17 -16 -16 -16 -16 -16 -16 -16 -16 -16 -15 -15 -15 -15 -14 -14
-20 -20 -20 -20 -20 -20 -19 -19 -19 -19 -18 -17 -17 -17 -17 -17 -17 -17 -17 -17 -17 -16 -17 -17 -17 -18 -18 -18 -17 -16 -16 -16 -16 -16 -17 -17 -17 -16 -15 -15 -15 -15 -14
-20 -20 -20 -20 -20 -19 -19 -19 -18 -18 -18 -17 -16 -16 -16 -16 -16 -16 -16 -17 -17 -17 -17 -17 -18 -18 -18 -18 -17 -17 -16 -16 -16 -16 -17 -17 -17 -16 -16 -15 -15 -15 -14
-20 -20 -20 -20 -20 -20 -20 -19 -19 -18 -18 -17 -17 -16 -16 -16 -16 -16 -16 -17 -17 -18 -18 -18 -17 -18 -17 -17 -17 -17 -16 -16 -16 -16 -17 -17 -17 -17 -16 -16 -16 -15 -15
-21 -21 -21 -21 -21 -21 -20 -20 -19 -18 -18 -17 -17 -16 -17 -17 -17 -17 -17 -17 -17 -18 -18 -18 -17 -17 -17 -17 -17 -16 -16 -16 -16 -16 -17 -17 -18 -17 -17 -16 -16 -15 -16
-21 -21 -21 -21 -21 -21 -21 -20 -20 -19 -19 -18 -18 -18 -18 -18 -18 -18 -18 -17 -17 -17 -17 -17 -17 -17 -17 -17 -17 -16 -16 -16 -16 -16 -17 -17 -17 -18 -17 -16 -16 -16 -15
-22 -22 -22 -22 -22 -22 -22 -22 -21 -21 -20 -20 -20 -20 -19 -19 -19 -18 -18 -17 -17 -17 -17 -17 -17 -17 -17 -17 -17 -16 -15 -15 -16 -16 -16 -17 -17 -17 -17 -17 -17 -16 -15
-22 -23 -23 -23 -22 -22 -22 -22 -22 -21 -21 -21 -21 -20 -20 -19 -19 -18 -18 -17 -17 -17 -17 -16 -16 -16 -17 -17 -17 -15 -15 -15 -15 -16 -16 -16 -16 -16 -17 -17 -17 -17 -15
-22 -22 -22 -22 -22 -22 -21 -21 -21 -21 -21 -20 -20 -19 -19 -18 -18 -18 -17 -17 -17 -17 -17 -16 -16 -16 -16 -16 -17 -16 -15 -15 -15 -16 -16 -16 -16 -16 -16 -17 -17 -17 -17
-22 -22 -22 -21 -21 -21 -21 -21 -21 -21 -20 -20 -20 -19 -18 -18 -17 -17 -17 -17 -17 -17 -17 -17 -16 -16 -16 -16 -16 -16 -16 -16 -15 -16 -16 -16 -16 -16 -17 -17 -17 -17 -16
-22 -22 -21 -21 -21 -21 -21 -21 -21 -20 -20 -20 -19 -19 -18 -18 -18 -18 -17 -17 -17 -17 -17 -17 -17 -17 -17 -16 -17 -17 -16 -16 -16 -16 -16 -16 -17 -17 -17 -17 -17 -16 -17
Height
5765 5762 5760 5758 5756 5755 5753 5752 5752 5754 5756 5757 5761 5765 5770 5772 5774 5777 5781 5784 5788 5791 5793 5794 5795 5793 5794 5793 5793 5793 5792 5791 5792 5793 5791 5790 5788 5789 5791 5791 5791 5791 5790
5754 5750 5748 5746 5744 5742 5742 5742 5739 5739 5742 5745 5746 5750 5755 5758 5760 5763 5766 5770 5774 5777 5781 5783 5785 5784 5785 5785 5785 5785 5785 5784 5784 5784 5784 5784 5784 5784 5786 5786 5785 5785 5786
5744 5742 5739 5736 5734 5731 5731 5729 5728 5727 5728 5730 5735 5736 5738 5742 5746 5748 5752 5755 5759 5763 5766 5769 5774 5774 5774 5776 5776 5776 5777 5776 5776 5777 5776 5778 5779 5778 5779 5779 5778 5778 5778
5734 5732 5730 5727 5724 5722 5720 5718 5717 5716 5716 5717 5717 5722 5725 5727 5728 5730 5735 5739 5742 5747 5751 5754 5759 5762 5763 5764 5765 5766 5767 5768 5767 5768 5770 5770 5772 5771 5772 5771 5769 5770 5771
5723 5721 5719 5717 5715 5712 5711 5709 5706 5703 5703 5702 5704 5705 5708 5711 5712 5714 5717 5722 5725 5728 5733 5737 5741 5747 5749 5751 5754 5756 5756 5758 5759 5760 5761 5762 5764 5765 5765 5764 5762 5764 5765
5712 5709 5707 5706 5704 5701 5698 5696 5694 5693 5692 5691 5692 5693 5694 5696 5697 5698 5701 5703 5707 5708 5714 5718 5724 5729 5733 5737 5740 5743 5745 5747 5748 5748 5752 5753 5754 5757 5758 5758 5757 5758 5759
5701 5698 5695 5692 5691 5688 5685 5683 5682 5682 5680 5678 5679 5679 5680 5682 5682 5684 5686 5689 5690 5693 5698 5701 5706 5711 5716 5720 5724 5727 5729 5732 5735 5739 5743 5743 5745 5747 5749 5750 5751 5750 5753
5690 5688 5686 5684 5681 5677 5674 5672 5670 5668 5666 5665 5664 5664 5666 5666 5666 5667 5670 5674 5676 5677 5680 5684 5688 5692 5696 5701 5706 5710 5712 5717 5719 5725 5730 5730 5734 5736 5738 5742 5742 5745 5747
5678 5676 5673 5672 5670 5667 5665 5662 5661 5659 5657 5655 5653 5651 5650 5650 5651 5652 5654 5656 5659 5660 5662 5665 5668 5672 5677 5683 5687 5690 5695 5699 5705 5711 5715 5719 5723 5726 5727 5732 5733 5736 5740
5666 5662 5659 5657 5655 5653 5651 5649 5648 5646 5644 5643 5641 5640 5637 5637 5636 5636 5637 5640 5643 5645 5645 5647 5650 5651 5658 5663 5667 5673 5679 5684 5689 5693 5700 5703 5712 5715 5717 5722 5725 5727 5732
5652 5649 5646 5644 5642 5639 5637 5635 5634 5632 5631 5630 5628 5625 5623 5623 5622 5621 5622 5623 5625 5629 5630 5629 5630 5634 5637 5644 5649 5654 5660 5666 5670 5678 5685 5691 5695 5701 5705 5710 5715 5719 5724
5639 5635 5632 5630 5627 5625 5623 5620 5619 5618 5616 5614 5613 5610 5609 5607 5606 5605 5605 5606 5607 5611 5613 5612 5613 5618 5621 5626 5631 5635 5641 5647 5652 5657 5667 5676 5683 5688 5694 5699 5705 5709 5713
5625 5622 5619 5616 5613 5610 5608 5607 5605 5603 5602 5600 5598 5596 5594 5593 5592 5592 5591 5591 5592 5593 5595 5597 5599 5602 5605 5608 5611 5616 5621 5627 5633 5639 5648 5657 5666 5672 5680 5686 5692 5697 5702
5614 5610 5607 5604 5601 5599 5596 5594 5591 5589 5587 5585 5583 5581 5579 5577 5576 5576 5576 5577 5578 5580 5582 5583 5584 5587 5591 5594 5594 5600 5606 5610 5616 5622 5629 5638 5647 5656 5666 5673 5680 5689 5694
5602 5599 5596 5594 5591 5588 5585 5582 5579 5576 5574 5572 5569 5567 5565 5564 5561 5561 5562 5563 5563 5564 5565 5566 5568 5570 5572 5575 5580 5585 5590 5596 5601 5608 5614 5621 5629 5639 5650 5660 5669 5671 5683
5592 5588 5586 5583 5580 5576 5574 5571 5566 5562 5559 5556 5556 5555 5554 5552 5550 5549 5549 5549 5549 5549 5549 5550 5550 5553 5556 5560 5565 5570 5575 5580 5587 5593 5601 5606 5612 5623 5633 5646 5656 5663 5673
5583 5579 5576 5572 5569 5566 5562 5559 5556 5551 5546 5543 5541 5540 5541 5541 5538 5537 5536 5537 5537 5535 5534 5533 5534 5537 5541 5546 5551 5556 5561 5567 5574 5580 5587 5593 5599 5609 5619 5632 5642 5651 5662
5573 5569 5565 5561 5557 5553 5550 5546 5543 5541 5539 5535 5530 5527 5527 5529 5528 5525 5524 5524 5524 5522 5520 5521 5522 5526 5530 5534 5539 5544 5548 5554 5560 5568 5574 5581 5587 5596 5607 5620 5629 5639 5652
5561 5556 5553 5549 5545 5542 5539 5535 5532 5530 5528 5525 5522 5518 5517 5517 5516 5515 5515 5514 5513 5510 5508 5508 5511 5516 5520 5523 5527 5530 5536 5542 5548 5555 5563 5570 5578 5586 5596 5608 5618 5629 5639
5548 5543 5539 5537 5534 5531 5527 5525 5521 5519 5516 5514 5512 5510 5507 5506 5505 5504 5504 5504 5503 5501 5498 5497 5499 5505 5509 5513 5515 5519 5524 5531 5538 5545 5553 5561 5569 5577 5586 5597 5607 5620 5631
5535 5529 5525 5522 5519 5517 5515 5513 5510 5507 5504 5502 5500 5499 5498 5497 5496 5495 5494 5493 5492 5491 5489 5488 5489 5494 5498 5502 5505 5510 5515 5522 5529 5537 5544 5553 5561 5570 5578 5587 5598 5608 5618
5524 5518 5514 5511 5509 5507 5505 5503 5500 5497 5495 5493 5491 5490 5489 5488 5488 5487 5486 5485 5483 5482 5481 5480 5482 5485 5489 5493 5496 5501 5507 5514 5522 5530 5538 5547 5555 5563 5571 5579 5589 5598 5608
5521 5516 5511 5508 5505 5502 5500 5498 5496 5493 5490 5487 5485 5482 5480 5479 5478 5477 5476 5475 5475 5474 5474 5473 5475 5479 5482 5486 5489 5494 5501 5508 5515 5524 5533 5541 5549 5556 5566 5574 5582 5589 5600
5517 5513 5509 5506 5503 5501 5499 5496 5493 5489 5485 5480 5476 5473 5470 5467 5466 5465 5465 5465 5465 5466 5466 5467 5468 5472 5477 5481 5485 5488 5495 5502 5511 5519 5527 5535 5543 5551 5560 5569 5577 5584 5591
5517 5513 5509 5506 5504 5501 5497 5494 5489 5484 5478 5473 5467 5462 5458 5455 5453 5452 5453 5453 5455 5456 5458 5459 5461 5465 5470 5475 5480 5485 5490 5497 5505 5514 5522 5531 5539 5548 5555 5563 5570 5579 5587
5518 5514 5510 5506 5504 5500 5496 5492 5486 5480 5473 5467 5460 5453 5447 5442 5439 5437 5437 5439 5442 5445 5448 5450 5454 5458 5464 5470 5475 5481 5487 5493 5500 5508 5515 5525 5533 5540 5548 5557 5564 5572 5580
Wind_Speed
45 46 43 44 45 49 47 42 44 42 40 42 50 51 50 48 43 43 44 42 38 34 29 31 30 30 26 26 25 22 22 20 17 16 25 23 25 26 31 28 30 28 30
42 41 38 40 44 45 47 47 35 34 38 36 41 44 49 53 49 47 48 46 45 39 34 34 33 30 29 29 31 28 26 22 19 15 17 19 25 24 28 31 30 29 30
37 35 35 38 40 43 46 45 41 40 38 38 41 42 41 48 53 51 51 52 51 47 40 38 38 37 35 33 34 35 31 26 21 20 18 21 22 23 26 32 33 34 32
37 35 33 35 38 42 42 44 44 41 41 41 38 43 43 46 48 51 57 56 56 55 52 45 42 45 42 37 33 33 34 30 26 24 25 24 27 27 29 31 37 36 34
38 36 34 34 36 40 41 43 43 42 46 48 45 45 47 48 47 51 56 56 61 62 59 57 56 53 48 43 38 33 34 33 31 28 28 26 27 28 28 27 31 37 35
40 39 38 40 40 40 42 42 43 44 43 46 44 43 44 42 42 48 53 50 52 48 49 50 53 54 50 49 47 41 42 41 36 32 32 29 28 29 30 25 25 35 40
42 41 42 41 38 38 40 42 42 42 43 45 45 45 46 52 50 45 50 53 49 47 47 46 49 54 58 58 56 51 50 43 41 38 38 30 31 31 35 30 31 31 31
37 38 38 38 36 35 36 38 39 40 41 44 46 45 45 45 50 52 52 56 57 57 53 54 55 54 57 57 59 60 58 51 45 43 44 36 36 38 38 34 29 31 28
35 37 38 38 37 35 34 35 36 37 39 40 41 42 43 45 46 47 49 52 60 63 63 67 64 60 63 61 61 57 58 54 50 47 45 42 40 41 40 41 34 32 35
38 39 39 40 39 38 37 36 38 39 40 40 40 41 42 44 46 47 48 49 53 56 58 59 60 58 56 60 64 56 52 49 48 45 47 44 45 46 44 46 40 38 32
42 42 41 41 40 39 38 38 37 37 38 41 43 46 48 50 51 50 50 50 51 54 58 58 58 57 55 54 54 54 52 50 49 48 47 48 48 50 50 48 45 39 33
46 44 40 40 40 41 40 40 40 41 41 42 43 44 44 45 47 49 50 50 51 55 56 55 55 54 54 54 55 55 54 53 51 51 50 51 51 50 52 48 45 42 39
43 42 41 40 40 39 38 38 38 39 39 40 41 41 41 42 42 42 43 44 45 46 48 49 49 48 48 47 46 47 49 49 51 53 53 53 56 56 56 52 46 48 47
38 37 36 35 35 35 35 36 37 38 39 39 38 38 38 39 40 41 43 45 46 47 47 47 48 48 47 46 45 48 49 47 45 45 53 56 57 60 59 57 50 46 48
34 33 33 33 33 34 35 35 36 37 36 34 34 33 33 34 38 38 39 40 42 44 44 44 44 46 46 46 47 47 47 48 48 46 44 56 60 59 61 58 53 39 48
34 34 34 34 34 35 35 36 39 38 37 36 33 30 29 30 33 35 34 33 33 36 39 43 46 45 45 45 46 47 46 43 44 46 47 45 60 61 60 57 58 55 53
33 34 33 34 35 38 38 38 37 39 38 37 35 31 26 25 27 29 30 30 31 34 35 36 37 38 39 40 42 44 45 44 45 44 45 45 53 61 60 57 57 56 53
36 37 36 37 37 38 38 38 38 36 35 35 35 33 29 23 23 27 28 28 31 34 34 33 32 33 33 34 38 40 42 42 41 44 44 45 47 58 60 56 56 56 52
37 37 36 37 37 37 37 38 38 36 34 32 33 34 31 28 26 25 26 28 30 33 33 34 35 35 33 33 34 36 38 39 39 41 42 44 44 54 59 57 56 58 59
42 43 42 40 39 38 39 38 38 36 33 32 32 31 32 29 28 26 25 25 24 26 28 29 35 37 35 33 35 35 36 37 39 39 39 44 41 46 54 55 55 57 55
42 43 44 43 42 40 39 36 34 33 31 30 31 30 29 27 27 26 26 26 23 24 24 23 27 29 32 33 34 35 35 34 38 38 37 40 41 40 44 51 54 56 55
28 25 23 23 23 22 23 23 22 22 23 24 25 26 26 25 25 26 25 24 23 22 21 19 22 26 28 27 30 33 33 34 38 37 35 36 40 40 40 45 46 50 54
24 21 18 17 14 13 11 9 10 12 14 16 19 22 25 25 25 26 26 26 23 21 20 17 21 23 23 24 26 32 34 36 39 38 38 39 40 41 40 40 41 43 52
22 18 15 14 12 11 11 14 16 19 22 23 24 25 27 28 29 29 28 27 23 20 20 18 20 25 23 23 24 29 35 38 41 39 40 40 40 40 41 43 41 39 45
15 15 16 13 10 12 16 18 21 22 22 22 23 25 28 30 31 31 30 29 29 27 22 20 21 26 28 25 26 25 29 37 44 44 45 42 39 36 37 41 45 46 44
16 16 14 11 13 18 19 23 28 30 27 26 24 22 23 25 26 29 29 30 28 27 23 22 22 26 30 27 27 29 29 30 35 42 46 45 42 41 41 41 45 48 48
Wind_Direction
286 290 292 290 288 281 275 277 263 275 278 283 256 253 256 259 263 268 265 261 262 265 268 262 253 254 257 268 277 280 278 276 274 280 285 286 284 277 253 262 272 275 280
287 289 288 287 284 283 277 271 262 262 263 265 262 257 261 268 261 263 266 268 264 263 268 262 248 250 258 264 272 271 274 274 271 262 268 275 269 264 252 264 264 269 278
288 289 287 282 280 281 279 271 265 261 256 247 264 262 259 261 263 263 265 262 263 261 260 260 256 248 251 259 269 268 269 270 266 261 251 263 262 271 272 267 263 265 266
289 289 285 279 278 280 278 278 271 270 267 263 255 256 259 260 260 262 264 267 263 262 256 257 260 257 251 254 264 267 267 271 267 255 250 243 261 266 266 269 265 255 259
287 283 280 276 276 276 275 277 277 275 269 268 265 270 266 265 264 264 264 265 261 258 257 257 260 251 249 250 258 258 262 266 268 261 250 240 252 258 266 265 261 255 256
283 282 282 282 280 278 277 275 274 275 277 269 261 261 261 256 255 257 256 253 258 256 251 254 254 247 249 249 252 257 263 263 260 257 253 241 239 249 254 264 267 258 256
280 282 285 287 284 279 278 279 278 276 276 276 273 270 266 259 259 251 247 241 243 242 248 255 253 250 251 252 253 253 260 261 259 254 251 242 244 236 248 250 262 266 264
281 278 272 274 277 277 277 278 279 279 278 277 276 274 270 267 265 264 255 247 249 245 254 255 256 256 255 252 253 259 262 263 254 253 250 237 238 237 239 248 246 256 258
288 286 281 277 276 275 274 273 272 272 273 273 273 273 273 271 267 264 264 261 253 256 261 259 260 260 254 254 257 261 261 264 257 248 244 241 237 237 235 239 241 256 258
294 293 292 288 285 281 279 277 275 275 274 274 273 273 273 272 270 266 265 262 261 262 263 263 263 264 263 260 261 263 260 254 251 247 244 235 236 236 237 235 241 238 248
295 293 290 287 285 283 281 279 277 276 276 276 274 273 272 271 270 268 265 263 262 261 260 259 260 260 260 260 260 260 257 251 246 245 240 240 231 232 235 236 237 235 229
293 291 288 287 287 286 285 284 282 281 280 277 274 272 270 269 267 266 266 265 263 261 261 261 259 259 260 258 258 256 253 250 245 240 239 235 232 231 233 233 234 228 239
290 290 290 290 289 289 288 286 284 282 280 277 275 273 271 269 268 267 266 266 264 262 259 258 258 257 255 251 247 246 247 245 243 237 233 231 230 228 228 228 231 229 226
292 291 290 289 288 287 287 287 287 286 284 283 280 277 274 271 268 266 264 262 261 259 258 256 257 256 254 253 252 250 247 245 243 241 233 226 227 228 228 223 223 227 231
293 292 290 289 288 288 289 290 291 290 290 289 287 282 277 273 270 267 265 264 261 260 259 257 255 254 253 251 247 247 246 243 243 240 239 231 223 224 228 224 214 212 229
296 294 291 290 290 291 291 293 296 296 296 294 292 288 280 272 270 270 268 264 264 266 265 260 258 254 251 248 246 244 243 242 241 240 238 237 225 221 223 224 221 217 220
296 293 293 293 292 292 294 295 296 298 299 299 295 293 287 275 271 269 265 262 269 273 269 262 254 246 241 242 242 242 242 240 239 238 235 233 228 220 220 219 220 214 217
298 297 296 296 296 297 297 297 296 295 293 293 296 295 293 284 273 271 271 275 279 276 272 259 244 235 237 240 241 240 240 240 236 233 231 227 229 219 220 216 217 219 215
302 299 298 298 297 295 295 295 294 293 293 288 285 287 289 288 283 278 273 274 275 274 273 260 243 237 240 245 248 245 241 236 227 225 225 222 226 220 218 215 215 214 213
300 297 295 293 291 291 292 293 294 293 289 286 281 279 283 285 284 283 279 278 278 279 276 264 246 239 242 247 249 242 237 230 221 219 220 219 218 221 216 216 215 215 214
298 293 290 289 289 289 289 291 291 290 284 282 279 277 277 277 277 277 279 283 285 287 281 270 246 239 238 247 244 235 230 223 216 214 215 214 213 215 213 214 214 215 213
330 323 313 306 302 299 299 298 293 286 279 277 276 274 272 272 269 269 272 278 280 283 289 269 240 231 236 238 235 228 223 216 211 211 211 208 208 209 207 210 209 212 213
334 336 336 332 330 333 334 333 323 314 305 294 284 279 277 274 270 269 271 275 277 272 280 269 238 230 232 232 229 224 218 210 208 205 203 203 204 206 204 205 207 209 208
341 347 350 351 1 7 358 341 329 318 309 303 296 289 283 278 275 272 269 268 267 267 270 263 242 224 225 225 224 219 214 209 206 204 202 201 202 204 204 206 207 207 209
6 3 357 2 14 5 358 352 347 341 334 325 311 300 292 286 280 274 268 266 265 265 262 259 241 222 216 215 215 213 210 208 206 204 206 205 207 208 211 211 210 208 205
8 6 5 6 8 8 10 11 7 3 4 358 346 329 313 298 288 280 269 260 257 257 252 255 235 219 210 211 210 208 207 206 206 208 211 212 214 216 215 213 213 212 210